2024-149F

Last updated on Mon Sep 16 2024 00:02:03 GMT+0000 (Coordinated Universal Time)

1 60473U 24149F 24259.17360451 .00019070 00000+0 93642-3 0 9992 2 60473 97.4427 334.2590 0002210 32.1479 327.9890 15.18113479 4453
UTC large
Height (km)
Speed (km/s)
/
Latitude / Longitude
Inclination (degrees)
Orbital Period (minutes)
Azimuth
Elevation
Range (km)
Doppler Factor

Next 0 passes for location: London (51.5072 / 0.1276)

Sorry there are no passes over London.